Погода в Великих Борках

Украина / Тернопольская область     49°31′14″N   25°45′15″E
темп.,
°C
ветер,
м/с
пор.,
м/с
влажн.,
%
обл.,
%
осадки,
мм/ч
давл.,
гПа
погр.,
м
13 августа, сб
сб1300:00+17с3698100 0.2 1018210
03:00+17св3698100 0.3 1017209
06:00+17ссв3596100 1.7 1015127
09:00+19всв4686100 1.7 1015383
12:00+22всв466937 0.1 10141013
15:00+23в467499 3.8 10131011
18:00+22в3680100 6.1 1012305
21:00+18св51094100 11.3 1012213
14 августа, вс
вс1400:00+18св41094100 1.8 1012260
03:00+16св369771 2.8 1011143
06:00+16св34977 0.1 101174
09:00+19всв3486100 0.1 1010251
12:00+23ссв446981 0.0 1010620
15:00+28всв564697 0.0 10091536
18:00+26в5953100 0.0 10081060
21:00+22всв4106897 0.0 1008199
15 августа, пн
пн1500:00+18св3108566 1.2 1009180
03:00+18ссв118275 1.3 100811
06:00+17всв228297 0.0 100819
09:00+20св357452 0.0 1009154
12:00+26в564899 0.0 10081062
15:00+27всв4648100 0.0 10071279
18:00+27всв2550100 0.0 1006970
21:00+22с3463100 0.0 100642
16 августа, вт
вт1600:00+21всв3463100 0.0 100751
03:00+20св2265100 0.2 100723
06:00+19св3470100 0.0 100776
09:00+20сз117388 0.1 100720
12:00+25сз2154100 0.0 1008649
15:00+28ююз1146100 0.0 10081479
18:00+27ссз1148100 0.0 1008955
21:00+23с336698 0.0 100835
17 августа, ср
ср1700:00+19ю258731 0.4 1010110
03:00+18св228651 0.4 100927
06:00+17ссв22915 0.0 101024
09:00+21ссв347050 0.0 1010398
12:00+25ссз454940 0.0 10101112
15:00+26с565251 0.0 10101725
18:00+25ссв67585 0.0 10101353
21:00+20ссв33785 0.0 101146